Location: Ashton River Estates
(39.1762°N, 77.0261°W)
Time: 00:03:28
(UTC+00:00)

Cosmos 968 Rocket - Pass Details

Date: 29 October 2020
Orbit: 741 x 770 km, 74.0° (Epoch: 03 December)

Event Time Altitude Azimuth Distance (km) Brightness Sun altitude
Rises 23:18:28 0° 343° (NNW) 3,231 6.9 -13.8°
Reaches altitude 10° 23:20:52 10° 345° (NNW) 2,297 6.1 -14.3°
Maximum altitude 23:26:04 75° 71° (ENE) 784 3.4 -15.3°
Drops below altitude 10° 23:31:12 10° 156° (SSE) 2,262 5.7 -16.3°
Sets 23:33:32 0° 158° (SSE) 3,178 6.5 -16.7°
